This is the latest recevied weather packets stored in our database for station/object KG5EO. If no packets are shown the sender has not sent any weather packets the latest 1 day(s).
| Time | Temp. | Humidity | Pressure | Rain* | Wind** | Luminosity | Snow |
|---|---|---|---|---|---|---|---|
| 1777999563 | 21.67° C | 43% | 41 hPa | 0 mm | 0.45 m/s, 252° | - | - |
| 1777999263 | 21.67° C | 44% | 41 hPa | 0 mm | 1.34 m/s, 301° | - | - |
| 1777998963 | 21.11° C | 44% | 41 hPa | 0 mm | 2.24 m/s, 271° | - | - |
| 1777998662 | 21.67° C | 47% | 41 hPa | 0 mm | 0.89 m/s, 319° | - | - |
| 1777998363 | 21.11° C | 44% | 41 hPa | 0 mm | 0.89 m/s, 289° | - | - |
| 1777998062 | 21.11° C | 44% | 41 hPa | 0 mm | 1.79 m/s, 27° | - | - |
| 1777997763 | 20.56° C | 45% | 41 hPa | 0 mm | 0.89 m/s, 269° | - | - |
| 1777997462 | 20.56° C | 48% | 41 hPa | 0 mm | 1.34 m/s, 251° | - | - |
| 1777997162 | 20.56° C | 46% | 41 hPa | 0 mm | 0.45 m/s, 282° | - | - |
| 1777996861 | 20.56° C | 44% | 41 hPa | 0 mm | 1.34 m/s, 338° | - | - |
| 1777996561 | 20.56° C | 45% | 41 hPa | 0 mm | 3.58 m/s, 283° | - | - |
| 1777996262 | 20.56° C | 46% | 41 hPa | 0 mm | 0.89 m/s, 244° | - | - |
| 1777995961 | 20.56° C | 47% | 41 hPa | 0 mm | 2.24 m/s, 305° | - | - |
| 1777995662 | 20.56° C | 49% | 41 hPa | 0 mm | 0.89 m/s, 267° | - | - |
| 1777995361 | 20.56° C | 49% | 41 hPa | 0 mm | 0 m/s | - | - |
| 1777995062 | 20.56° C | 54% | 41 hPa | 0 mm | 0 m/s | - | - |
| 1777994773 | 20.56° C | 52% | 41 hPa | 0 mm | 1.34 m/s, 302° | - | - |
| 1777994460 | 20.56° C | 53% | 41 hPa | 0 mm | 0 m/s | - | - |
| 1777994160 | 20° C | 56% | 41 hPa | 0 mm | 0 m/s | - | - |
| 1777993860 | 20° C | 53% | 41 hPa | 0 mm | 0.45 m/s, 285° | - | - |
| 1777993560 | 20° C | 52% | 41 hPa | 0 mm | 0.89 m/s, 257° | - | - |
| 1777993260 | 20.56° C | 54% | 41 hPa | 0 mm | 0.45 m/s, 281° | - | - |
| 1777992960 | 20° C | 58% | 41 hPa | 0 mm | 0 m/s | - | - |
| 1777992659 | 20° C | 57% | 41 hPa | 0 mm | 0 m/s | - | - |
| 1777992359 | 20° C | 58% | 41 hPa | 0 mm | 0 m/s | - | - |
* Rain latest hour (hover to see other rain measurements)
** Current wind speed in m/s (hover to see current wind gust speed)